Vorticity
nan nan nan nan nan nan nan nan nan nan nan nan nan nan nan nan nan nan nan nan nan nan nan nan nan nan nan nan nan nan nan nan nan nan nan nan nan nan nan nan nan nan nan
nan 7 6 6 7 6 7 8 7 5 6 7 7 9 10 10 9 6 7 9 8 7 7 7 6 6 8 7 7 7 8 9 8 6 7 7 6 10 10 8 9 8 nan
nan 6 6 6 7 8 7 7 9 6 6 7 8 9 6 10 11 8 4 11 11 6 5 6 6 6 7 8 7 8 7 6 8 8 4 6 9 11 10 8 8 9 nan
nan 7 8 7 6 9 8 8 9 7 7 6 8 7 6 9 10 7 4 6 13 13 7 6 9 6 5 8 8 7 6 7 8 7 7 5 9 5 8 13 11 10 nan
nan 8 9 8 9 10 7 8 8 8 7 7 6 6 8 6 8 9 6 3 10 10 10 10 9 6 7 10 10 7 5 6 8 7 8 9 9 8 9 8 10 9 nan
nan 9 10 8 9 10 8 9 9 7 7 8 8 8 7 6 7 7 5 6 8 9 8 9 7 7 8 8 8 11 9 8 8 8 8 6 8 10 9 9 10 9 nan
nan 10 8 7 9 9 8 7 8 7 9 9 8 7 7 10 10 6 5 5 6 8 10 7 7 7 8 7 9 9 11 9 7 6 6 6 9 9 8 8 10 8 nan
nan 11 8 8 9 9 7 8 8 8 7 8 8 8 6 5 11 10 6 6 8 9 9 9 8 6 6 6 6 8 7 7 8 9 6 6 7 9 9 8 7 8 nan
nan 10 8 9 9 9 10 10 7 7 9 7 7 9 9 8 7 9 8 9 7 7 10 8 9 9 7 5 4 6 6 6 7 8 7 8 7 7 8 9 9 8 nan
nan 10 9 9 9 9 10 10 9 9 9 7 7 8 9 9 7 9 8 7 9 9 8 8 8 8 7 6 5 5 8 6 6 8 9 8 8 7 8 8 9 10 nan
nan 13 10 10 9 10 9 8 9 10 10 10 8 8 8 8 8 8 10 8 7 9 9 10 7 6 7 7 7 7 7 5 5 6 8 7 8 6 7 10 9 8 nan
nan 14 12 9 9 8 9 10 8 7 9 11 9 10 9 9 8 8 8 10 8 8 8 9 9 8 7 8 7 6 6 7 7 7 8 6 7 8 8 9 9 8 nan
nan 12 11 10 10 9 9 9 10 9 9 9 10 10 9 9 9 9 8 8 9 9 9 9 8 8 8 8 8 8 7 7 8 9 8 8 7 8 9 8 7 8 nan
nan 16 15 11 11 10 9 9 9 10 10 9 8 9 10 9 9 9 9 8 9 10 9 10 9 9 9 9 9 9 9 8 7 8 8 9 8 9 9 10 8 7 nan
nan 14 14 19 17 11 11 10 10 10 9 9 9 10 9 11 10 9 9 10 8 8 10 9 9 8 8 10 12 9 8 8 9 8 8 10 13 14 10 7 7 6 nan
nan 11 9 12 18 23 19 13 10 11 10 9 8 9 11 10 9 10 10 9 10 10 9 8 8 6 9 12 11 8 8 10 10 11 11 11 16 17 13 8 12 16 nan
nan 9 9 11 11 15 14 20 24 14 10 9 10 9 9 10 10 10 9 10 10 10 10 9 10 10 8 13 13 11 9 9 9 10 10 13 15 15 12 14 14 15 nan
nan 10 11 10 9 9 10 10 15 23 24 13 10 10 9 9 11 11 9 10 12 10 11 13 11 10 11 15 13 12 10 11 16 15 15 17 16 16 17 14 9 7 nan
nan 8 12 11 9 8 9 16 15 14 16 21 23 19 11 11 10 10 11 10 10 12 12 14 18 18 18 17 19 13 13 12 12 16 20 22 21 24 13 7 7 6 nan
nan 10 12 9 8 10 13 15 13 13 9 11 14 25 32 21 14 12 13 12 13 18 16 11 9 21 20 18 28 15 11 15 9 9 11 15 20 17 15 14 8 7 nan
nan 12 12 7 8 11 14 10 9 8 12 13 12 12 17 17 25 28 19 19 12 12 15 14 10 9 11 12 15 19 18 14 11 10 10 11 17 16 16 12 16 14 nan
nan 13 12 7 7 10 12 9 8 10 13 14 11 11 14 14 14 17 17 20 18 8 9 7 7 9 9 11 17 20 19 15 12 10 14 20 16 13 8 15 16 7 nan
nan 10 9 8 9 10 11 9 10 13 12 11 10 10 12 13 15 13 16 11 10 13 13 9 8 8 8 12 14 11 11 14 12 13 13 9 4 3 5 8 3 4 nan
nan 10 11 10 10 10 10 11 12 13 14 12 9 8 8 9 14 17 15 15 13 13 12 12 13 9 12 10 8 8 7 6 10 11 5 4 1 2 4 1 5 9 nan
nan 11 12 9 10 11 10 10 13 15 14 12 11 11 8 8 7 8 14 21 22 25 21 17 14 14 16 18 21 19 12 9 9 7 7 7 8 8 8 9 10 10 nan
nan nan nan nan nan nan nan nan nan nan nan nan nan nan nan nan nan nan nan nan nan nan nan nan nan nan nan nan nan nan nan nan nan nan nan nan nan nan nan nan nan nan nan
CAPE
326 209 51 24 0 16 4 5 5 3 6 7 5 3 6 6 2 0 1 1 15 76 128 132 195 161 130 121 195 178 167 131 100 11 0 0 0 0 0 0 0 0 0
313 181 49 7 0 4 12 4 1 4 1 12 2 2 5 8 2 0 0 12 26 66 78 88 132 164 163 157 173 157 142 118 91 32 13 7 1 0 0 0 0 0 0
301 188 74 0 0 3 12 2 5 7 7 4 3 3 1 1 4 1 0 2 27 32 58 71 99 143 155 169 182 160 144 125 122 117 59 48 33 5 0 0 0 0 0
355 246 94 22 0 4 7 10 6 4 3 12 3 1 2 0 0 0 0 9 42 55 72 83 96 92 123 217 196 201 174 149 72 134 119 169 196 57 54 12 0 0 0
375 242 122 45 0 0 1 8 5 2 2 4 2 0 6 2 0 0 0 6 11 25 56 80 133 127 126 189 180 166 151 109 62 78 42 77 98 122 45 42 1 0 0
309 266 176 41 11 6 1 10 16 10 0 4 6 6 4 2 2 0 0 0 0 43 20 46 109 122 179 183 106 106 77 62 24 36 87 70 43 76 54 69 49 9 0
147 233 160 36 13 12 3 13 5 9 11 3 5 5 3 0 1 0 0 0 0 1 30 18 51 42 57 159 168 74 59 56 23 4 21 38 89 92 41 33 5 34 7
151 251 176 59 10 57 14 4 10 15 16 13 7 3 6 0 5 0 0 0 0 0 3 14 12 22 32 26 8 23 48 39 29 20 27 14 42 61 44 25 39 10 0
91 279 228 91 30 37 64 26 13 4 7 3 3 10 4 14 4 0 0 0 0 0 0 13 28 2 0 3 2 14 18 25 25 31 34 45 49 75 64 62 39 25 6
18 268 297 170 71 33 46 82 20 1 0 3 3 5 7 5 0 0 1 30 9 0 0 3 26 13 6 8 7 8 8 27 25 25 30 24 35 71 72 78 45 10 7
72 265 317 290 161 52 35 38 47 19 23 0 0 1 2 9 14 2 3 4 20 2 0 0 2 2 3 0 13 13 14 11 9 21 21 47 72 70 70 66 63 4 1
136 325 288 423 231 157 36 29 30 21 35 28 3 0 7 5 8 5 2 3 0 0 0 0 0 0 0 5 4 5 6 5 1 1 27 22 19 38 65 76 59 42 29
51 222 401 442 441 320 123 36 48 37 44 57 51 37 6 3 6 0 0 2 1 0 0 0 0 0 0 0 0 0 0 0 0 0 2 5 14 22 48 52 46 41 10
14 48 217 364 530 589 507 225 89 71 40 46 77 62 76 39 35 15 6 1 10 4 0 0 0 0 0 0 0 0 0 0 0 0 5 6 7 5 15 10 9 3 0
1 29 27 118 309 577 723 581 319 129 96 47 40 85 109 112 91 69 83 59 20 21 0 1 0 0 0 0 0 0 0 0 2 3 3 1 0 1 6 0 0 0 0
5 0 0 0 0 193 459 584 646 430 177 118 70 57 81 132 125 124 138 120 91 60 46 29 12 6 0 0 0 0 0 0 0 0 0 0 0 0 0 0 0 0 0
0 6 22 18 1 0 7 16 506 640 493 262 211 160 118 99 138 138 122 114 105 95 87 74 65 45 19 1 0 0 0 0 0 1 0 0 0 0 0 0 1 1 0
0 0 10 13 54 40 28 56 49 33 611 566 440 308 222 167 138 121 118 124 122 107 82 87 79 75 67 48 0 0 0 0 0 0 0 1 0 0 1 0 0 0 0
0 0 1 0 0 0 0 13 79 62 0 265 517 497 359 271 200 153 149 148 123 131 123 104 95 77 81 28 0 0 0 0 0 0 0 1 1 1 0 0 1 1 1
1 0 0 0 0 0 0 0 0 0 0 0 0 0 412 384 314 252 214 157 154 128 118 54 0 1 0 0 1 0 0 1 0 0 0 0 0 0 0 0 0 2 1
1 0 0 0 0 0 0 1 0 2 3 2 0 0 1 0 0 210 204 202 158 0 0 0 0 0 0 0 1 0 0 0 0 0 0 0 0 1 0 0 0 0 0
0 0 0 0 0 0 0 1 1 1 0 0 0 0 0 1 2 2 1 0 0 0 0 0 0 0 0 0 0 0 0 0 0 0 1 1 3 3 2 1 2 2 0
0 0 0 0 0 0 0 1 2 1 0 0 0 0 0 0 1 4 4 1 0 0 0 0 0 1 1 1 1 1 1 1 0 0 4 8 5 4 2 4 4 0 0
0 0 0 0 0 0 1 2 1 2 0 0 0 0 0 0 1 1 2 1 0 0 0 1 1 4 0 0 0 1 1 0 1 0 1 0 0 0 0 0 0 0 0
0 0 1 1 0 1 1 3 1 1 1 1 1 0 0 0 0 2 3 3 1 0 1 1 2 0 0 2 3 1 0 0 0 0 0 0 0 1 1 3 2 0 1
0 0 1 1 1 1 3 4 3 1 1 2 2 1 2 1 1 0 1 6 9 15 9 5 0 2 8 9 10 9 6 3 0 0 0 1 0 0 2 2 2 1 0